Simultaneous Nadir Overpasses (SNOs) Predictions

Prediction of SNOs between AQUA and METOP-B Satellite Orbit:

Table of predicted SNOs for the next 14.0 days since TLE Epoch: 8/16/2014
Index Date (AQUA) Time (AQUA) Lat,Lon (AQUA) SZA (AQUA ) Date (METOP-B) Time (METOP-B) Lat,Lon (METOP-B) SZA (METOP-B ) Distance(km) Time Diff (sec)
1 08/16/2014 03:40:25 73.78, 119.27 60.04 08/16/2014 03:39:48 73.79, 119.31 60.05 1.44 37
2 08/16/2014 04:29:52 -73.87, -73.28 119.86 08/16/2014 04:30:29 -73.86, -73.20 119.88 2.85 37
3 08/18/2014 23:14:38 73.79,-174.30 60.94 08/18/2014 23:14:09 73.78,-174.31 60.94 1.51 29
4 08/19/2014 00:04:05 -73.87, -6.84 118.96 08/19/2014 00:04:50 -73.85, -6.82 118.99 2.98 45
5 08/21/2014 17:59:12 -73.16, 85.82 118.82 08/21/2014 17:58:05 -73.11, 83.25 118.77 83.37 67
6 08/21/2014 18:48:52 73.81,-107.91 61.89 08/21/2014 18:48:30 73.81,-107.82 61.89 2.70 22
7 08/21/2014 19:38:19 -73.89, 59.56 118.02 08/21/2014 19:39:11 -73.88, 59.67 118.04 3.66 52
8 08/24/2014 13:33:31 -73.46, 151.65 117.56 08/24/2014 13:32:21 -73.39, 150.28 117.56 44.31 70
9 08/24/2014 14:23:05 73.80, -41.44 62.82 08/24/2014 14:22:52 73.79, -41.46 62.82 1.00 13
10 08/24/2014 15:12:32 -73.88, 126.04 117.09 08/24/2014 15:13:33 -73.87, 126.04 117.10 0.77 61
11 08/27/2014 09:07:48 -73.72,-142.46 116.31 08/27/2014 09:06:35 -73.72,-142.56 116.29 3.26 73
12 08/27/2014 09:57:17 73.81, 25.00 63.80 08/27/2014 09:57:12 73.82, 25.01 63.82 2.08 5
13 08/27/2014 10:46:44 -73.88,-167.52 116.12 08/27/2014 10:47:53 -73.90,-167.48 116.11 2.76 69




NCC Satellite Simultaneous Nadir Overpasses (SNOs) Prediction Service
